SCP
0 0 0 0 0 0 0 0 0 0 0 0 0 0 0 0 0 0 0 0 0 0 0 0 0 0 0 0 0 0 0 0 0 0 0 0 0 0 0 0 0 0 0
0 0 0 0 0 0 0 0 0 0 0 0 0 0 0 0 0 0 0 0 0 0 0 0 0 0 0 0 0 0 0 -0 0 0 0 0 0 0 0 0 0 0 0
0 0 0 0 0 0 0 0 0 0 0 0 0 0 0 0 0 0 0 0 0 0 0 0 0 0 0 0 -0 -0 -0 -0 -0 -0 0 0 0 0 0 0 0 0 0
0 0 0 0 0 0 0 0 0 0 0 0 0 0 0 0 0 0 0 0 0 0 0 0 0 0 0 0 0 0 -0 0 0 0 0 0 0 0 0 0 0 0 0
0 0 0 0 0 0 0 0 0 0 0 0 0 0 0 0 0 0 0 0 0 0 0 0 0 0 0 0 0 0 0 0 0 0 0 0 0 0 0 0 0 0 0
0 0 0 0 0 0 0 0 0 0 0 0 0 0 0 0 0 0 0 0 0 0 0 0 0 0 0 0 0 0 0 0 0 0 0 0 0 0 0 0 0 0 0
0 0 0 0 0 0 0 0 0 0 0 0 0 0 0 0 0 0 0 0 0 0 0 0 0 0 0 0 0 0 0 0 0 0 0 0 0 0 0 0 0 0 0
0 0 0 0 0 0 0 0 0 0 0 0 0 0 0 0 0 0 0 0 0 0 0 0 0 0 0 0 0 0 0 0 0 0 0 0 0 0 0 0 0 0 0
0 0 0 0 0 0 0 0 0 0 0 0 0 0 0 0 0 0 0 0 0 0 0 0 0 0 0 0 0 0 0 0 0 0 0 0 0 0 0 0 0 0 0
0 0 0 0 0 0 0 0 0 0 0 0 0 0 0 0 0 0 0 0 0 0 0 0 0 0 0 0 0 0 0 0 0 0 0 0 0 0 0 0 0 0 0
0 0 0 0 0 0 0 0 0 0 0 0 0 0 0 0 0 0 0 0 0 0 0 0 0 0 0 0 0 0 0 0 0 0 0 0 0 0 0 0 0 0 0
0 0 0 0 0 0 0 0 0 0 0 0 0 0 0 0 0 0 0 0 0 0 0 0 0 0 0 0 0 0 0 0 0 0 0 0 0 0 0 0 0 0 0
0 0 0 0 0 0 0 0 0 0 0 0 0 0 0 0 0 0 0 0 0 0 0 0 0 0 0 0 0 0 0 0 0 0 0 0 0 0 0 0 0 0 0
0 0 0 0 0 0 0 0 0 0 0 0 0 0 0 0 0 0 0 0 0 0 0 0 0 0 0 0 0 0 0 0 0 0 0 0 0 0 0 0 0 0 0
0 0 0 0 0 0 0 0 0 0 0 0 0 0 0 0 0 0 0 0 0 0 0 0 0 0 0 0 0 0 0 0 0 0 0 0 0 0 0 0 0 0 0
0 0 0 0 0 0 0 0 0 0 0 0 0 0 0 0 0 0 0 0 0 0 0 0 0 0 0 0 0 0 0 0 0 0 0 0 0 0 0 0 0 0 0
0 0 0 0 0 0 0 0 0 0 0 0 0 0 0 0 0 0 0 0 0 0 0 0 0 0 0 0 0 0 0 0 0 0 0 0 0 0 0 0 0 0 0
0 0 0 0 0 0 0 0 0 0 0 0 0 0 0 0 0 0 0 0 0 0 0 0 0 0 0 0 0 0 0 0 0 0 0 0 0 0 0 0 0 0 0
0 0 0 0 0 0 0 0 0 0 0 0 0 0 0 0 0 0 0 0 0 0 0 0 0 0 0 0 0 0 0 0 0 0 0 0 0 0 0 0 0 0 0
0 0 0 0 0 0 0 0 0 0 0 0 0 0 0 0 0 0 0 0 0 0 0 0 0 0 0 0 0 0 0 0 0 0 0 0 0 0 0 0 0 0 0
0 0 0 0 0 0 0 0 0 0 0 0 0 0 0 0 0 0 0 0 0 0 0 0 0 0 0 0 0 0 0 0 0 0 0 0 0 0 0 0 0 0 0
0 0 0 0 0 0 0 0 0 0 0 0 0 0 0 0 0 0 0 0 0 0 0 0 0 0 0 0 0 0 0 0 0 0 0 0 0 0 0 0 0 0 0
0 0 0 0 0 0 0 0 0 0 0 0 0 0 0 0 0 0 0 0 0 0 0 0 0 0 0 0 0 0 0 0 0 0 0 0 0 0 0 0 0 0 0
0 0 0 0 0 0 0 0 0 0 0 0 0 0 0 0 0 0 0 0 0 0 0 0 0 0 0 0 0 0 0 0 0 0 0 0 0 0 0 0 0 0 0
0 0 0 0 0 0 0 0 0 0 0 0 0 0 0 0 0 0 0 0 0 0 0 0 0 0 0 0 0 0 0 0 0 0 0 0 0 0 0 0 0 0 0
0 0 0 0 0 0 0 0 0 0 0 0 0 0 0 0 0 0 0 0 0 0 0 0 0 0 0 0 0 0 0 0 0 0 0 0 0 0 0 0 0 0 0
Wind_Speed_500mb
2 2 2 4 5 7 11 13 11 6 6 6 5 2 10 15 16 15 8 17 13 11 11 11 11 11 13 10 11 11 10 9 9 10 14 17 21 26 32 36 39 43 44
1 3 6 7 8 10 12 11 5 3 4 3 3 3 7 11 13 15 13 11 15 14 14 14 14 15 14 13 11 10 10 9 10 12 15 18 19 22 24 28 33 37 39
5 2 5 7 7 9 10 12 7 5 5 3 3 1 3 11 11 13 13 13 14 14 16 18 20 19 16 14 14 12 12 15 14 14 14 16 20 24 24 25 28 32 34
2 7 8 8 8 8 8 9 4 5 3 3 6 5 6 7 11 11 11 11 12 12 17 20 18 16 17 18 18 19 20 23 24 23 22 21 20 21 24 27 28 28 31
8 3 7 8 7 6 5 4 5 4 6 5 5 9 9 9 9 10 13 12 13 12 13 23 25 23 26 26 28 29 31 31 32 32 32 33 30 29 28 27 30 33 33
12 10 9 8 4 5 4 4 3 5 4 7 3 9 12 12 12 13 12 9 11 12 15 21 22 23 34 35 37 39 39 39 40 40 38 39 42 40 37 35 33 34 35
18 14 9 11 7 4 9 5 4 5 2 3 2 4 11 15 17 18 16 17 19 21 21 21 22 24 28 38 38 42 42 43 44 47 49 49 47 47 46 42 42 39 37
20 18 14 12 12 9 9 10 8 6 5 5 5 9 15 16 21 27 25 25 26 25 26 25 28 30 29 26 29 42 41 43 45 47 49 48 48 49 49 50 49 47 47
24 24 23 17 15 10 11 12 12 11 7 11 9 10 12 12 7 20 24 23 28 27 28 30 28 24 24 22 27 26 41 38 41 43 46 47 46 47 48 50 53 55 55
26 26 26 24 17 14 17 15 16 15 14 13 16 15 17 19 11 18 16 23 25 30 26 28 26 27 27 25 30 39 48 46 48 50 51 52 52 52 52 55 57 58 60
26 24 28 27 25 18 20 20 21 19 18 16 20 17 19 18 22 21 32 27 24 26 25 26 26 29 30 31 27 27 45 44 48 50 53 55 58 61 64 66 66 66 65
26 28 28 29 30 27 23 21 23 23 20 21 21 23 25 25 27 31 35 34 31 29 32 31 32 29 29 28 29 39 43 44 46 47 49 51 53 54 57 60 65 69 72
23 28 29 31 29 32 31 26 26 27 25 26 27 26 27 30 31 33 34 37 39 37 33 30 28 28 27 26 26 42 44 47 47 46 48 50 52 53 55 57 61 64 66
24 25 28 33 34 33 33 33 28 30 30 33 38 40 34 33 35 36 36 36 39 37 37 33 31 28 26 26 31 45 41 44 50 42 43 45 48 51 54 58 61 64 67
26 31 35 34 31 31 32 34 34 36 37 40 41 37 38 33 36 37 38 37 38 43 40 30 28 26 30 26 33 41 43 41 46 48 46 47 50 54 58 60 62 65 70
30 31 33 33 34 31 32 36 36 36 40 41 38 37 36 34 36 37 38 36 36 40 48 36 34 32 35 36 36 40 39 48 47 54 53 45 51 54 58 56 60 67 74
31 31 34 37 32 31 31 35 40 43 40 37 33 33 36 36 38 35 36 37 38 38 45 43 37 36 38 38 42 39 40 42 43 48 59 67 58 57 51 57 62 67 72
26 29 31 34 29 28 30 34 38 40 45 40 44 37 40 36 34 34 34 38 39 38 43 51 45 43 43 41 45 43 42 42 46 49 59 69 61 63 51 57 62 72 73
28 24 25 28 28 28 29 31 35 40 35 36 34 44 46 32 32 31 32 35 36 40 42 47 53 45 46 43 47 46 46 46 45 49 57 60 65 68 62 71 74 69 61
22 20 18 20 22 24 30 37 44 43 41 38 43 46 33 30 30 28 29 32 36 40 43 48 53 51 48 42 44 46 49 47 53 51 53 55 58 54 64 70 64 56 51
23 24 24 24 25 36 38 42 36 36 33 31 31 31 31 33 35 35 34 32 34 38 42 47 52 50 50 46 43 47 52 53 57 54 52 51 48 54 53 56 46 49 56
18 26 36 29 38 37 42 31 31 34 33 34 35 33 34 41 41 41 42 44 47 50 49 46 50 51 51 49 46 47 50 54 62 47 45 59 52 53 53 48 43 61 45
12 17 19 23 26 24 31 34 37 40 40 36 37 38 38 38 45 45 50 52 53 53 50 46 51 57 52 46 49 50 49 50 59 57 51 55 49 53 47 47 51 56 50
11 12 13 18 22 25 35 34 36 39 43 46 44 45 46 47 50 52 50 48 51 56 55 47 44 47 49 52 54 51 50 53 53 50 47 59 51 51 48 51 54 45 49
15 18 17 19 22 22 29 28 31 38 35 41 45 47 50 52 56 56 57 54 58 69 72 65 60 57 66 69 63 58 49 46 54 51 48 47 39 49 53 53 34 44 51
20 18 23 26 27 31 31 31 31 35 38 44 45 48 54 54 54 56 58 63 68 57 50 66 62 67 60 59 57 60 49 48 47 51 38 41 49 48 49 55 45 52 45
Wind_Direction_500mb
125 49 0 39 22 10 348 346 345 321 324 336 9 125 163 178 187 188 209 223 212 223 237 239 242 279 300 303 320 329 324 305 289 282 278 273 268 266 266 266 266 265 263
99 9 4 7 9 2 353 352 338 15 332 332 0 86 167 186 187 200 209 221 254 250 230 231 251 280 279 295 314 333 324 309 280 283 293 282 280 278 273 269 266 265 266
342 42 338 0 337 348 0 352 357 5 0 338 267 256 193 204 206 204 205 218 266 295 236 236 243 261 254 259 266 271 285 295 292 289 294 293 290 283 278 276 275 271 268
305 4 339 330 306 338 349 353 349 337 323 297 249 239 232 194 199 201 206 214 235 243 284 271 254 250 253 258 264 271 275 279 282 286 287 291 292 293 285 278 279 276 272
226 281 294 293 314 321 333 0 324 305 293 295 248 231 222 212 208 219 221 235 243 244 242 272 267 269 270 270 273 274 275 276 277 283 285 284 283 284 285 283 280 275 275
240 267 279 289 306 295 300 280 336 299 305 302 259 226 213 222 235 235 232 246 252 259 269 255 266 285 283 278 277 277 276 276 275 275 277 279 279 281 280 278 281 281 278
239 250 249 263 258 257 241 268 305 299 275 294 264 232 229 233 231 231 242 247 266 276 274 275 275 271 271 290 292 276 275 276 276 275 277 278 277 278 278 277 275 276 277
237 247 241 242 238 235 258 245 247 218 259 268 249 257 243 235 243 245 248 260 264 267 272 275 275 274 275 274 271 281 280 276 277 278 277 277 277 274 274 277 278 274 275
240 241 241 224 234 232 243 244 243 227 245 271 261 266 273 265 284 255 245 261 266 267 270 277 276 270 273 276 278 288 287 279 278 278 277 278 277 276 272 269 272 275 276
241 237 233 233 233 227 232 243 241 223 251 260 275 271 261 275 275 287 249 276 273 274 270 267 263 274 274 279 270 274 274 282 281 281 282 280 278 275 272 269 267 267 271
247 233 229 234 236 235 243 230 232 240 241 250 272 280 279 286 288 283 289 283 272 280 273 270 268 267 269 271 272 276 286 287 285 283 281 278 276 275 275 274 273 272 269
249 232 225 237 243 239 238 243 241 239 233 246 261 271 277 281 286 285 282 283 279 277 273 272 270 271 270 268 273 279 287 288 286 285 284 283 281 279 276 273 270 269 268
233 233 245 244 248 250 237 236 241 231 243 259 266 273 280 280 282 280 278 281 284 279 281 273 271 266 266 266 275 282 295 294 289 288 289 288 288 288 286 284 281 277 273
238 234 248 248 252 245 240 240 244 245 248 262 276 278 270 276 282 276 275 277 280 280 277 263 276 266 267 271 271 293 307 298 297 298 296 295 294 290 287 284 282 282 280
241 251 256 254 247 246 238 240 248 246 262 273 277 270 269 281 279 275 274 268 270 280 281 281 271 270 262 274 281 292 300 294 295 297 296 298 300 296 292 291 287 282 280
253 252 256 250 247 242 243 248 245 256 270 275 273 275 277 287 276 276 270 266 263 269 278 279 276 275 265 278 285 291 294 296 304 299 300 299 299 296 296 291 287 284 280
259 261 260 257 245 244 245 253 254 265 270 273 272 277 284 288 280 270 270 269 269 270 275 280 279 278 278 283 287 290 293 289 292 294 291 294 299 298 298 295 294 290 287
265 270 263 257 249 251 257 257 260 269 275 267 285 280 285 281 270 272 268 265 267 268 275 282 282 281 280 283 285 290 293 288 289 290 289 307 304 306 301 301 300 294 285
275 269 261 253 252 254 263 266 271 277 272 274 277 286 289 275 270 267 262 263 268 274 275 280 284 285 282 284 287 293 295 292 298 301 302 300 301 300 305 309 307 296 295
271 265 259 262 259 261 271 273 286 282 279 271 277 286 272 266 269 270 272 272 274 274 275 275 278 283 285 286 285 292 296 295 294 298 297 297 299 303 307 304 307 313 314
278 260 261 266 260 262 278 280 285 285 274 273 280 277 272 263 266 272 272 272 270 276 278 276 276 277 277 279 280 287 292 298 297 302 302 297 301 301 298 302 308 306 298
262 260 282 274 272 283 282 282 288 281 267 271 277 277 276 275 277 275 278 284 283 283 282 271 272 274 275 277 281 284 288 294 298 301 298 295 300 299 301 302 296 298 298
292 295 292 296 291 282 284 288 286 279 273 272 274 276 273 273 273 272 283 289 285 282 285 282 267 265 270 273 277 286 286 288 291 294 299 297 300 297 301 298 294 288 289
323 308 298 287 284 285 287 289 290 284 282 278 274 274 274 276 278 281 274 270 274 278 282 280 278 271 271 266 270 275 283 288 293 299 296 292 299 298 301 302 301 297 292
326 314 304 299 298 295 300 302 286 285 281 282 282 277 276 279 283 288 284 281 285 288 281 277 274 277 267 265 276 273 276 283 290 297 299 293 297 303 302 303 304 291 304
321 308 299 296 297 304 305 309 300 290 282 284 283 282 284 289 293 290 294 289 283 281 273 283 287 289 283 272 269 270 274 278 284 294 295 297 302 307 308 314 311 324 320
Wind_Speed_850mb
2 2 2 4 5 7 11 13 11 6 6 6 5 2 10 15 16 15 8 17 13 11 11 11 11 11 13 10 11 11 10 9 9 10 14 17 21 26 32 36 39 43 44
1 3 6 7 8 10 12 11 5 3 4 3 3 3 7 11 13 15 13 11 15 14 14 14 14 15 14 13 11 10 10 9 10 12 15 18 19 22 24 28 33 37 39
5 2 5 7 7 9 10 12 7 5 5 3 3 1 3 11 11 13 13 13 14 14 16 18 20 19 16 14 14 12 12 15 14 14 14 16 20 24 24 25 28 32 34
2 7 8 8 8 8 8 9 4 5 3 3 6 5 6 7 11 11 11 11 12 12 17 20 18 16 17 18 18 19 20 23 24 23 22 21 20 21 24 27 28 28 31
8 3 7 8 7 6 5 4 5 4 6 5 5 9 9 9 9 10 13 12 13 12 13 23 25 23 26 26 28 29 31 31 32 32 32 33 30 29 28 27 30 33 33
12 10 9 8 4 5 4 4 3 5 4 7 3 9 12 12 12 13 12 9 11 12 15 21 22 23 34 35 37 39 39 39 40 40 38 39 42 40 37 35 33 34 35
18 14 9 11 7 4 9 5 4 5 2 3 2 4 11 15 17 18 16 17 19 21 21 21 22 24 28 38 38 42 42 43 44 47 49 49 47 47 46 42 42 39 37
20 18 14 12 12 9 9 10 8 6 5 5 5 9 15 16 21 27 25 25 26 25 26 25 28 30 29 26 29 42 41 43 45 47 49 48 48 49 49 50 49 47 47
24 24 23 17 15 10 11 12 12 11 7 11 9 10 12 12 7 20 24 23 28 27 28 30 28 24 24 22 27 26 41 38 41 43 46 47 46 47 48 50 53 55 55
26 26 26 24 17 14 17 15 16 15 14 13 16 15 17 19 11 18 16 23 25 30 26 28 26 27 27 25 30 39 48 46 48 50 51 52 52 52 52 55 57 58 60
26 24 28 27 25 18 20 20 21 19 18 16 20 17 19 18 22 21 32 27 24 26 25 26 26 29 30 31 27 27 45 44 48 50 53 55 58 61 64 66 66 66 65
26 28 28 29 30 27 23 21 23 23 20 21 21 23 25 25 27 31 35 34 31 29 32 31 32 29 29 28 29 39 43 44 46 47 49 51 53 54 57 60 65 69 72
23 28 29 31 29 32 31 26 26 27 25 26 27 26 27 30 31 33 34 37 39 37 33 30 28 28 27 26 26 42 44 47 47 46 48 50 52 53 55 57 61 64 66
24 25 28 33 34 33 33 33 28 30 30 33 38 40 34 33 35 36 36 36 39 37 37 33 31 28 26 26 31 45 41 44 50 42 43 45 48 51 54 58 61 64 67
26 31 35 34 31 31 32 34 34 36 37 40 41 37 38 33 36 37 38 37 38 43 40 30 28 26 30 26 33 41 43 41 46 48 46 47 50 54 58 60 62 65 70
30 31 33 33 34 31 32 36 36 36 40 41 38 37 36 34 36 37 38 36 36 40 48 36 34 32 35 36 36 40 39 48 47 54 53 45 51 54 58 56 60 67 74
31 31 34 37 32 31 31 35 40 43 40 37 33 33 36 36 38 35 36 37 38 38 45 43 37 36 38 38 42 39 40 42 43 48 59 67 58 57 51 57 62 67 72
26 29 31 34 29 28 30 34 38 40 45 40 44 37 40 36 34 34 34 38 39 38 43 51 45 43 43 41 45 43 42 42 46 49 59 69 61 63 51 57 62 72 73
28 24 25 28 28 28 29 31 35 40 35 36 34 44 46 32 32 31 32 35 36 40 42 47 53 45 46 43 47 46 46 46 45 49 57 60 65 68 62 71 74 69 61
22 20 18 20 22 24 30 37 44 43 41 38 43 46 33 30 30 28 29 32 36 40 43 48 53 51 48 42 44 46 49 47 53 51 53 55 58 54 64 70 64 56 51
23 24 24 24 25 36 38 42 36 36 33 31 31 31 31 33 35 35 34 32 34 38 42 47 52 50 50 46 43 47 52 53 57 54 52 51 48 54 53 56 46 49 56
18 26 36 29 38 37 42 31 31 34 33 34 35 33 34 41 41 41 42 44 47 50 49 46 50 51 51 49 46 47 50 54 62 47 45 59 52 53 53 48 43 61 45
12 17 19 23 26 24 31 34 37 40 40 36 37 38 38 38 45 45 50 52 53 53 50 46 51 57 52 46 49 50 49 50 59 57 51 55 49 53 47 47 51 56 50
11 12 13 18 22 25 35 34 36 39 43 46 44 45 46 47 50 52 50 48 51 56 55 47 44 47 49 52 54 51 50 53 53 50 47 59 51 51 48 51 54 45 49
15 18 17 19 22 22 29 28 31 38 35 41 45 47 50 52 56 56 57 54 58 69 72 65 60 57 66 69 63 58 49 46 54 51 48 47 39 49 53 53 34 44 51
20 18 23 26 27 31 31 31 31 35 38 44 45 48 54 54 54 56 58 63 68 57 50 66 62 67 60 59 57 60 49 48 47 51 38 41 49 48 49 55 45 52 45
Wind_Direction_850mb
125 49 0 39 22 10 348 346 345 321 324 336 9 125 163 178 187 188 209 223 212 223 237 239 242 279 300 303 320 329 324 305 289 282 278 273 268 266 266 266 266 265 263
99 9 4 7 9 2 353 352 338 15 332 332 0 86 167 186 187 200 209 221 254 250 230 231 251 280 279 295 314 333 324 309 280 283 293 282 280 278 273 269 266 265 266
342 42 338 0 337 348 0 352 357 5 0 338 267 256 193 204 206 204 205 218 266 295 236 236 243 261 254 259 266 271 285 295 292 289 294 293 290 283 278 276 275 271 268
305 4 339 330 306 338 349 353 349 337 323 297 249 239 232 194 199 201 206 214 235 243 284 271 254 250 253 258 264 271 275 279 282 286 287 291 292 293 285 278 279 276 272
226 281 294 293 314 321 333 0 324 305 293 295 248 231 222 212 208 219 221 235 243 244 242 272 267 269 270 270 273 274 275 276 277 283 285 284 283 284 285 283 280 275 275
240 267 279 289 306 295 300 280 336 299 305 302 259 226 213 222 235 235 232 246 252 259 269 255 266 285 283 278 277 277 276 276 275 275 277 279 279 281 280 278 281 281 278
239 250 249 263 258 257 241 268 305 299 275 294 264 232 229 233 231 231 242 247 266 276 274 275 275 271 271 290 292 276 275 276 276 275 277 278 277 278 278 277 275 276 277
237 247 241 242 238 235 258 245 247 218 259 268 249 257 243 235 243 245 248 260 264 267 272 275 275 274 275 274 271 281 280 276 277 278 277 277 277 274 274 277 278 274 275
240 241 241 224 234 232 243 244 243 227 245 271 261 266 273 265 284 255 245 261 266 267 270 277 276 270 273 276 278 288 287 279 278 278 277 278 277 276 272 269 272 275 276
241 237 233 233 233 227 232 243 241 223 251 260 275 271 261 275 275 287 249 276 273 274 270 267 263 274 274 279 270 274 274 282 281 281 282 280 278 275 272 269 267 267 271
247 233 229 234 236 235 243 230 232 240 241 250 272 280 279 286 288 283 289 283 272 280 273 270 268 267 269 271 272 276 286 287 285 283 281 278 276 275 275 274 273 272 269
249 232 225 237 243 239 238 243 241 239 233 246 261 271 277 281 286 285 282 283 279 277 273 272 270 271 270 268 273 279 287 288 286 285 284 283 281 279 276 273 270 269 268
233 233 245 244 248 250 237 236 241 231 243 259 266 273 280 280 282 280 278 281 284 279 281 273 271 266 266 266 275 282 295 294 289 288 289 288 288 288 286 284 281 277 273
238 234 248 248 252 245 240 240 244 245 248 262 276 278 270 276 282 276 275 277 280 280 277 263 276 266 267 271 271 293 307 298 297 298 296 295 294 290 287 284 282 282 280
241 251 256 254 247 246 238 240 248 246 262 273 277 270 269 281 279 275 274 268 270 280 281 281 271 270 262 274 281 292 300 294 295 297 296 298 300 296 292 291 287 282 280
253 252 256 250 247 242 243 248 245 256 270 275 273 275 277 287 276 276 270 266 263 269 278 279 276 275 265 278 285 291 294 296 304 299 300 299 299 296 296 291 287 284 280
259 261 260 257 245 244 245 253 254 265 270 273 272 277 284 288 280 270 270 269 269 270 275 280 279 278 278 283 287 290 293 289 292 294 291 294 299 298 298 295 294 290 287
265 270 263 257 249 251 257 257 260 269 275 267 285 280 285 281 270 272 268 265 267 268 275 282 282 281 280 283 285 290 293 288 289 290 289 307 304 306 301 301 300 294 285
275 269 261 253 252 254 263 266 271 277 272 274 277 286 289 275 270 267 262 263 268 274 275 280 284 285 282 284 287 293 295 292 298 301 302 300 301 300 305 309 307 296 295
271 265 259 262 259 261 271 273 286 282 279 271 277 286 272 266 269 270 272 272 274 274 275 275 278 283 285 286 285 292 296 295 294 298 297 297 299 303 307 304 307 313 314
278 260 261 266 260 262 278 280 285 285 274 273 280 277 272 263 266 272 272 272 270 276 278 276 276 277 277 279 280 287 292 298 297 302 302 297 301 301 298 302 308 306 298
262 260 282 274 272 283 282 282 288 281 267 271 277 277 276 275 277 275 278 284 283 283 282 271 272 274 275 277 281 284 288 294 298 301 298 295 300 299 301 302 296 298 298
292 295 292 296 291 282 284 288 286 279 273 272 274 276 273 273 273 272 283 289 285 282 285 282 267 265 270 273 277 286 286 288 291 294 299 297 300 297 301 298 294 288 289
323 308 298 287 284 285 287 289 290 284 282 278 274 274 274 276 278 281 274 270 274 278 282 280 278 271 271 266 270 275 283 288 293 299 296 292 299 298 301 302 301 297 292
326 314 304 299 298 295 300 302 286 285 281 282 282 277 276 279 283 288 284 281 285 288 281 277 274 277 267 265 276 273 276 283 290 297 299 293 297 303 302 303 304 291 304
321 308 299 296 297 304 305 309 300 290 282 284 283 282 284 289 293 290 294 289 283 281 273 283 287 289 283 272 269 270 274 278 284 294 295 297 302 307 308 314 311 324 320